| time (UTC) | temp F | wind direction | speed MPH | gust MPH | rain 1hr in | rain 24hr in | rain mn in | humidity % | barometer mb |
| 20260505075003 | 55 | 181 | 0.0 | 0.0 | 0.00 | 0.00 | 0.00 | 75 | 1013.5 |
| 20260505074510 | 56 | 181 | 0.0 | 0.0 | 0.00 | 0.00 | 0.00 | 74 | 1013.4 |
| 20260505074105 | 56 | 184 | 0.0 | 0.0 | 0.00 | 0.00 | 0.00 | 74 | 1013.4 |
| 20260505073503 | 56 | 200 | 0.0 | 0.0 | 0.00 | 0.00 | 0.00 | 74 | 1013.4 |
| 20260505073014 | 56 | 162 | 0.0 | 0.0 | 0.00 | 0.00 | 0.00 | 74 | 1013.4 |
| 20260505072605 | 56 | 162 | 0.0 | 0.0 | 0.00 | 0.00 | 0.00 | 73 | 1013.4 |
| 20260505072003 | 56 | 162 | 0.0 | 0.0 | 0.00 | 0.00 | 0.00 | 73 | 1013.4 |
| 20260505071516 | 56 | 161 | 0.0 | 0.0 | 0.00 | 0.00 | 0.00 | 72 | 1013.3 |
| 20260505071104 | 56 | 161 | 0.0 | 0.0 | 0.00 | 0.00 | 0.00 | 73 | 1013.4 |
| 20260505070507 | 56 | 160 | 0.0 | 0.0 | 0.00 | 0.00 | 0.00 | 72 | 1013.3 |
| 20260505070010 | 56 | 191 | 0.0 | 0.0 | 0.00 | 0.00 | 0.00 | 71 | 1013.3 |
| 20260505065604 | 56 | 191 | 0.0 | 0.0 | 0.00 | 0.00 | 0.00 | 70 | 1013.4 |
| 20260505065004 | 56 | 169 | 0.0 | 1.0 | 0.00 | 0.00 | 0.00 | 71 | 1013.3 |
| 20260505064525 | 56 | 190 | 0.0 | 1.0 | 0.00 | 0.00 | 0.00 | 70 | 1013.3 |
| 20260505064103 | 56 | 179 | 0.0 | 0.0 | 0.00 | 0.00 | 0.00 | 69 | 1013.3 |
| 20260505063503 | 56 | 181 | 0.0 | 2.0 | 0.00 | 0.00 | 0.00 | 69 | 1013.3 |
| 20260505063010 | 57 | 193 | 0.0 | 2.0 | 0.00 | 0.00 | 0.00 | 68 | 1013.3 |
| 20260505062604 | 57 | 193 | 0.0 | 0.0 | 0.00 | 0.00 | 0.00 | 68 | 1013.3 |
| 20260505062003 | 57 | 193 | 0.0 | 1.0 | 0.00 | 0.00 | 0.00 | 67 | 1013.3 |
| 20260505061524 | 57 | 193 | 0.0 | 0.0 | 0.00 | 0.00 | 0.00 | 66 | 1013.4 |
| 20260505061104 | 57 | 193 | 0.0 | 0.0 | 0.00 | 0.00 | 0.00 | 65 | 1013.4 |
| 20260505060503 | 58 | 193 | 0.0 | 1.0 | 0.00 | 0.00 | 0.00 | 65 | 1013.4 |
| 20260505060010 | 58 | 193 | 0.0 | 1.0 | 0.00 | 0.00 | 0.00 | 64 | 1013.4 |
| 20260505055604 | 58 | 193 | 0.0 | 1.0 | 0.00 | 0.00 | 0.00 | 64 | 1013.4 |
| 20260505055006 | 58 | 188 | 0.0 | 1.0 | 0.00 | 0.00 | 0.00 | 63 | 1013.4 |
| 20260505054509 | 58 | 175 | 0.0 | 1.0 | 0.00 | 0.00 | 0.00 | 63 | 1013.3 |
| 20260505054103 | 58 | 175 | 0.0 | 1.0 | 0.00 | 0.00 | 0.00 | 62 | 1013.2 |
| 20260505053507 | 58 | 191 | 0.0 | 0.0 | 0.00 | 0.00 | 0.00 | 61 | 1013.3 |
| 20260505053009 | 58 | 228 | 0.0 | 0.0 | 0.00 | 0.00 | 0.00 | 61 | 1013.3 |
| 20260505052604 | 58 | 229 | 0.0 | 0.0 | 0.00 | 0.00 | 0.00 | 62 | 1013.4 |
| 20260505052002 | 58 | 191 | 0.0 | 0.0 | 0.00 | 0.00 | 0.00 | 63 | 1013.5 |
| 20260505051510 | 58 | 191 | 0.0 | 1.0 | 0.00 | 0.00 | 0.00 | 61 | 1013.5 |
| 20260505051105 | 58 | 191 | 0.0 | 1.0 | 0.00 | 0.00 | 0.00 | 61 | 1013.6 |
| 20260505050503 | 58 | 191 | 0.0 | 0.0 | 0.00 | 0.00 | 0.00 | 61 | 1013.6 |
| 20260505041512 | 57 | 235 | 0.0 | 0.0 | 0.00 | 0.00 | 0.00 | 66 | 1013.5 |
| 20260505041103 | 57 | 160 | 0.0 | 0.0 | 0.00 | 0.00 | 0.00 | 66 | 1013.4 |
| 20260505040511 | 57 | 160 | 0.0 | 0.0 | 0.00 | 0.00 | 0.00 | 67 | 1013.4 |
| 20260505035503 | 57 | 160 | 0.0 | 0.0 | 0.00 | 0.00 | 0.00 | 67 | 1013.4 |
| 20260505035010 | 57 | 160 | 0.0 | 0.0 | 0.00 | 0.00 | 0.00 | 66 | 1013.5 |
| 20260505034603 | 57 | 160 | 0.0 | 0.0 | 0.00 | 0.00 | 0.00 | 64 | 1013.5 |
| 20260505034006 | 58 | 160 | 0.0 | 0.0 | 0.00 | 0.00 | 0.00 | 64 | 1013.5 |
| 20260505033510 | 58 | 160 | 0.0 | 0.0 | 0.00 | 0.00 | 0.00 | 63 | 1013.5 |
| 20260505033105 | 58 | 160 | 0.0 | 0.0 | 0.00 | 0.00 | 0.00 | 62 | 1013.6 |
| 20260505032504 | 58 | 160 | 0.0 | 0.0 | 0.00 | 0.00 | 0.00 | 62 | 1013.6 |
| 20260505032011 | 58 | 160 | 0.0 | 0.0 | 0.00 | 0.00 | 0.00 | 61 | 1013.6 |
| 20260505031611 | 58 | 160 | 0.0 | 0.0 | 0.00 | 0.00 | 0.00 | 61 | 1013.7 |
| 20260505031003 | 58 | 198 | 0.0 | 0.0 | 0.00 | 0.00 | 0.00 | 61 | 1013.6 |
| 20260505030510 | 59 | 198 | 0.0 | 0.0 | 0.00 | 0.00 | 0.00 | 60 | 1013.6 |
| 20260505025504 | 59 | 198 | 0.0 | 0.0 | 0.00 | 0.00 | 0.00 | 59 | 1013.6 |
| 20260505025009 | 59 | 198 | 0.0 | 0.0 | 0.00 | 0.00 | 0.00 | 58 | 1013.6 |
| 20260505024603 | 59 | 198 | 0.0 | 0.0 | 0.00 | 0.00 | 0.00 | 60 | 1013.6 |
| 20260505024009 | 60 | 198 | 0.0 | 0.0 | 0.00 | 0.00 | 0.00 | 59 | 1013.6 |
| 20260505023603 | 60 | 198 | 0.0 | 0.0 | 0.00 | 0.00 | 0.00 | 59 | 1013.6 |
| 20260505023006 | 60 | 198 | 0.0 | 0.0 | 0.00 | 0.00 | 0.00 | 59 | 1013.5 |
| 20260505022509 | 60 | 198 | 0.0 | 0.0 | 0.00 | 0.00 | 0.00 | 59 | 1013.5 |
| 20260505022104 | 60 | 198 | 0.0 | 0.0 | 0.00 | 0.00 | 0.00 | 58 | 1013.4 |
| 20260505021504 | 60 | 198 | 0.0 | 0.0 | 0.00 | 0.00 | 0.00 | 57 | 1013.4 |
| 20260505021012 | 60 | 198 | 0.0 | 0.0 | 0.00 | 0.00 | 0.00 | 57 | 1013.4 |
| 20260505020603 | 60 | 198 | 0.0 | 0.0 | 0.00 | 0.00 | 0.00 | 57 | 1013.4 |
| 20260505020003 | 60 | 198 | 0.0 | 0.0 | 0.00 | 0.00 | 0.00 | 57 | 1013.4 |
| 20260505015513 | 61 | 198 | 0.0 | 0.0 | 0.00 | 0.00 | 0.00 | 59 | 1013.4 |
| 20260505015103 | 61 | 198 | 0.0 | 0.0 | 0.00 | 0.00 | 0.00 | 58 | 1013.4 |
| 20260505014502 | 61 | 198 | 0.0 | 0.0 | 0.00 | 0.00 | 0.00 | 59 | 1013.4 |
| 20260505014015 | 61 | 198 | 0.0 | 0.0 | 0.00 | 0.00 | 0.00 | 59 | 1013.3 |
| 20260505013603 | 61 | 198 | 0.0 | 0.0 | 0.00 | 0.00 | 0.00 | 59 | 1013.3 |
| 20260505013003 | 62 | 198 | 0.0 | 0.0 | 0.00 | 0.00 | 0.00 | 58 | 1013.1 |
| 20260505012509 | 62 | 198 | 0.0 | 0.0 | 0.00 | 0.00 | 0.00 | 57 | 1013.1 |
| 20260505012104 | 62 | 198 | 0.0 | 0.0 | 0.00 | 0.00 | 0.00 | 58 | 1013.1 |
| 20260505011503 | 63 | 198 | 0.0 | 0.0 | 0.00 | 0.00 | 0.00 | 56 | 1013.0 |
| 20260505011009 | 63 | 198 | 0.0 | 0.0 | 0.00 | 0.00 | 0.00 | 55 | 1012.9 |
| 20260505010604 | 63 | 198 | 0.0 | 0.0 | 0.00 | 0.00 | 0.00 | 54 | 1012.8 |
| 20260505010003 | 64 | 198 | 0.0 | 0.0 | 0.00 | 0.00 | 0.00 | 52 | 1012.7 |
| 20260505005509 | 64 | 198 | 0.0 | 0.0 | 0.00 | 0.00 | 0.00 | 52 | 1012.7 |
| 20260505005104 | 65 | 198 | 0.0 | 0.0 | 0.00 | 0.00 | 0.00 | 52 | 1012.6 |
| 20260505004502 | 65 | 198 | 0.0 | 0.0 | 0.00 | 0.00 | 0.00 | 50 | 1012.6 |
| 20260505004009 | 66 | 198 | 0.0 | 0.0 | 0.00 | 0.00 | 0.00 | 49 | 1012.6 |
| 20260505003603 | 66 | 198 | 0.0 | 0.0 | 0.00 | 0.00 | 0.00 | 49 | 1012.5 |
| 20260505003002 | 67 | 198 | 0.0 | 0.0 | 0.00 | 0.00 | 0.00 | 49 | 1012.5 |
| 20260505002514 | 67 | 198 | 0.0 | 0.0 | 0.00 | 0.00 | 0.00 | 47 | 1012.5 |
| 20260505002104 | 68 | 198 | 0.0 | 0.0 | 0.00 | 0.00 | 0.00 | 47 | 1012.5 |
| 20260505001503 | 68 | 198 | 0.0 | 0.0 | 0.00 | 0.00 | 0.00 | 47 | 1012.4 |
| 20260505001017 | 69 | 198 | 0.0 | 0.0 | 0.00 | 0.00 | 0.00 | 46 | 1012.3 |
| 20260505000603 | 69 | 198 | 0.0 | 0.0 | 0.00 | 0.00 | 0.00 | 46 | 1012.4 |
| 20260505000007 | 69 | 198 | 0.0 | 0.0 | 0.00 | 0.00 | 0.00 | 44 | 1012.3 |
| 20260504235510 | 70 | 198 | 0.0 | 0.0 | 0.00 | 0.00 | 0.00 | 45 | 1012.2 |
| 20260504235104 | 70 | 198 | 0.0 | 0.0 | 0.00 | 0.00 | 0.00 | 45 | 1012.1 |
| 20260504234505 | 71 | 198 | 0.0 | 0.0 | 0.00 | 0.00 | 0.00 | 43 | 1012.1 |
| 20260504234009 | 71 | 198 | 0.0 | 0.0 | 0.00 | 0.00 | 0.00 | 43 | 1012.0 |
| 20260504233603 | 71 | 198 | 0.0 | 3.0 | 0.00 | 0.00 | 0.00 | 41 | 1012.0 |
| 20260504233004 | 72 | 184 | 0.0 | 3.0 | 0.00 | 0.00 | 0.00 | 42 | 1012.0 |
| 20260504232510 | 72 | 191 | 0.0 | 0.0 | 0.00 | 0.00 | 0.00 | 41 | 1011.9 |
| 20260504232107 | 73 | 181 | 0.0 | 2.0 | 0.00 | 0.00 | 0.00 | 40 | 1011.9 |
| 20260504231503 | 73 | 181 | 0.0 | 2.0 | 0.00 | 0.00 | 0.00 | 38 | 1011.9 |
| 20260504231009 | 73 | 181 | 0.0 | 2.0 | 0.00 | 0.00 | 0.00 | 40 | 1011.9 |
| 20260504230604 | 73 | 183 | 0.0 | 2.0 | 0.00 | 0.00 | 0.00 | 37 | 1012.0 |
| 20260504230003 | 74 | 192 | 0.0 | 3.0 | 0.00 | 0.00 | 0.00 | 40 | 1012.0 |
| 20260504225509 | 74 | 220 | 0.0 | 3.0 | 0.00 | 0.00 | 0.00 | 39 | 1011.9 |
| 20260504225103 | 74 | 174 | 0.0 | 0.0 | 0.00 | 0.00 | 0.00 | 37 | 1011.9 |
| 20260504224503 | 75 | 169 | 0.0 | 4.0 | 0.00 | 0.00 | 0.00 | 38 | 1012.0 |
| 20260504224014 | 75 | 168 | 0.0 | 4.0 | 0.00 | 0.00 | 0.00 | 35 | 1012.0 |
| 20260504223604 | 75 | 178 | 0.0 | 6.0 | 0.00 | 0.00 | 0.00 | 34 | 1012.0 |
| 20260504223003 | 75 | 214 | 0.0 | 6.0 | 0.00 | 0.00 | 0.00 | 37 | 1012.0 |
| 20260504222510 | 75 | 175 | 0.0 | 1.0 | 0.00 | 0.00 | 0.00 | 35 | 1012.1 |
| 20260504222103 | 75 | 186 | 0.0 | 1.0 | 0.00 | 0.00 | 0.00 | 35 | 1012.0 |
| 20260504221504 | 75 | 165 | 0.0 | 4.0 | 0.00 | 0.00 | 0.00 | 34 | 1012.0 |
| 20260504221010 | 76 | 173 | 0.0 | 4.0 | 0.00 | 0.00 | 0.00 | 35 | 1012.0 |
| 20260504220603 | 76 | 217 | 0.0 | 0.0 | 0.00 | 0.00 | 0.00 | 37 | 1012.0 |
| 20260504220003 | 76 | 201 | 0.0 | 4.0 | 0.00 | 0.00 | 0.00 | 35 | 1012.0 |
| 20260504215510 | 76 | 203 | 0.0 | 3.0 | 0.00 | 0.00 | 0.00 | 33 | 1012.0 |
| 20260504215102 | 76 | 176 | 0.0 | 1.0 | 0.00 | 0.00 | 0.00 | 33 | 1012.0 |
| 20260504214503 | 76 | 150 | 0.0 | 3.0 | 0.00 | 0.00 | 0.00 | 33 | 1012.0 |
| 20260504214011 | 76 | 231 | 0.0 | 3.0 | 0.00 | 0.00 | 0.00 | 33 | 1012.0 |
| 20260504213604 | 76 | 231 | 0.0 | 4.0 | 0.00 | 0.00 | 0.00 | 32 | 1012.0 |
| 20260504213003 | 77 | 163 | 0.0 | 4.0 | 0.00 | 0.00 | 0.00 | 33 | 1012.0 |
| 20260504212509 | 77 | 180 | 0.0 | 4.0 | 0.00 | 0.00 | 0.00 | 34 | 1012.0 |
| 20260504212104 | 77 | 179 | 0.0 | 4.0 | 0.00 | 0.00 | 0.00 | 33 | 1012.0 |
| 20260504211503 | 78 | 205 | 0.0 | 2.0 | 0.00 | 0.00 | 0.00 | 31 | 1012.1 |
| 20260504211009 | 78 | 209 | 0.0 | 2.0 | 0.00 | 0.00 | 0.00 | 31 | 1012.1 |
| 20260504210606 | 79 | 188 | 0.0 | 1.0 | 0.00 | 0.00 | 0.00 | 31 | 1012.1 |
| 20260504210004 | 80 | 200 | 0.0 | 0.0 | 0.00 | 0.00 | 0.00 | 30 | 1012.0 |
| 20260504205509 | 80 | 211 | 0.0 | 2.0 | 0.00 | 0.00 | 0.00 | 31 | 1012.2 |
| 20260504205104 | 80 | 195 | 0.0 | 4.0 | 0.00 | 0.00 | 0.00 | 32 | 1012.3 |
| 20260504204504 | 80 | 177 | 0.0 | 5.0 | 0.00 | 0.00 | 0.00 | 31 | 1012.3 |
| 20260504204009 | 81 | 207 | 0.0 | 5.0 | 0.00 | 0.00 | 0.00 | 31 | 1012.3 |
| 20260504203605 | 81 | 172 | 0.0 | 0.0 | 0.00 | 0.00 | 0.00 | 32 | 1012.4 |
| 20260504203006 | 81 | 194 | 0.0 | 0.0 | 0.00 | 0.00 | 0.00 | 31 | 1012.4 |
| 20260504202513 | 81 | 184 | 0.0 | 1.0 | 0.00 | 0.00 | 0.00 | 31 | 1012.5 |
| 20260504202104 | 81 | 232 | 0.0 | 6.0 | 0.00 | 0.00 | 0.00 | 32 | 1012.5 |
| 20260504201505 | 80 | 146 | 0.0 | 7.0 | 0.00 | 0.00 | 0.00 | 32 | 1012.5 |
| 20260504201009 | 80 | 195 | 0.0 | 7.0 | 0.00 | 0.00 | 0.00 | 31 | 1012.7 |
| 20260504200603 | 81 | 286 | 1.0 | 6.0 | 0.00 | 0.00 | 0.00 | 31 | 1012.7 |
| 20260504200004 | 81 | 234 | 0.0 | 5.0 | 0.00 | 0.00 | 0.00 | 32 | 1012.8 |
| 20260504195509 | 81 | 196 | 0.0 | 9.0 | 0.00 | 0.00 | 0.00 | 33 | 1012.7 |
| 20260504195104 | 81 | 26 | 1.0 | 9.0 | 0.00 | 0.00 | 0.00 | 33 | 1012.8 |
| 20260504194504 | 82 | 216 | 0.0 | 9.0 | 0.00 | 0.00 | 0.00 | 33 | 1012.9 |
| 20260504194009 | 81 | 159 | 1.0 | 9.0 | 0.00 | 0.00 | 0.00 | 32 | 1012.9 |
| 20260504193603 | 81 | 200 | 0.0 | 5.0 | 0.00 | 0.00 | 0.00 | 33 | 1012.9 |
| 20260504193003 | 81 | 169 | 0.0 | 5.0 | 0.00 | 0.00 | 0.00 | 35 | 1013.0 |
| 20260504192509 | 81 | 181 | 0.0 | 5.0 | 0.00 | 0.00 | 0.00 | 32 | 1013.1 |
| 20260504192103 | 81 | 180 | 0.0 | 0.0 | 0.00 | 0.00 | 0.00 | 35 | 1013.2 |
| 20260504191503 | 80 | 15 | 0.0 | 0.0 | 0.00 | 0.00 | 0.00 | 34 | 1013.3 |
| 20260504191009 | 80 | 198 | 0.0 | 1.0 | 0.00 | 0.00 | 0.00 | 36 | 1013.3 |
| 20260504190605 | 79 | 205 | 0.0 | 5.0 | 0.00 | 0.00 | 0.00 | 34 | 1013.3 |
| 20260504190004 | 79 | 191 | 1.0 | 5.0 | 0.00 | 0.00 | 0.00 | 33 | 1013.5 |
| 20260504185509 | 79 | 112 | 0.0 | 5.0 | 0.00 | 0.00 | 0.00 | 36 | 1013.5 |
| 20260504185104 | 79 | 181 | 0.0 | 5.0 | 0.00 | 0.00 | 0.00 | 34 | 1013.6 |
| 20260504184504 | 78 | 171 | 0.0 | 4.0 | 0.00 | 0.00 | 0.00 | 34 | 1013.6 |
| 20260504184009 | 78 | 147 | 0.0 | 5.0 | 0.00 | 0.00 | 0.00 | 35 | 1013.6 |
| 20260504183604 | 78 | 169 | 0.0 | 5.0 | 0.00 | 0.00 | 0.00 | 35 | 1013.7 |
| 20260504183004 | 78 | 203 | 0.0 | 0.0 | 0.00 | 0.00 | 0.00 | 33 | 1013.7 |
| 20260504182509 | 78 | 105 | 0.0 | 0.0 | 0.00 | 0.00 | 0.00 | 36 | 1013.8 |
| 20260504182103 | 78 | 20 | 0.0 | 0.0 | 0.00 | 0.00 | 0.00 | 34 | 1013.8 |
| 20260504181503 | 78 | 219 | 0.0 | 2.0 | 0.00 | 0.00 | 0.00 | 34 | 1013.8 |
| 20260504181010 | 77 | 179 | 0.0 | 6.0 | 0.00 | 0.00 | 0.00 | 36 | 1013.9 |
| 20260504180604 | 77 | 183 | 0.0 | 6.0 | 0.00 | 0.00 | 0.00 | 36 | 1014.0 |
| 20260504180007 | 78 | 181 | 0.0 | 5.0 | 0.00 | 0.00 | 0.00 | 34 | 1014.1 |
| 20260504175512 | 77 | 167 | 0.0 | 5.0 | 0.00 | 0.00 | 0.00 | 36 | 1014.0 |
| 20260504175103 | 77 | 160 | 0.0 | 1.0 | 0.00 | 0.00 | 0.00 | 35 | 1014.0 |
| 20260504174504 | 77 | 179 | 0.0 | 5.0 | 0.00 | 0.00 | 0.00 | 36 | 1014.1 |
| 20260504174009 | 78 | 169 | 0.0 | 3.0 | 0.00 | 0.00 | 0.00 | 35 | 1014.2 |
| 20260504173606 | 78 | 157 | 0.0 | 3.0 | 0.00 | 0.00 | 0.00 | 36 | 1014.3 |
| 20260504173003 | 77 | 124 | 0.0 | 4.0 | 0.00 | 0.00 | 0.00 | 34 | 1014.3 |
| 20260504172508 | 77 | 166 | 0.0 | 4.0 | 0.00 | 0.00 | 0.00 | 35 | 1014.4 |
| 20260504172103 | 77 | 254 | 0.0 | 0.0 | 0.00 | 0.00 | 0.00 | 35 | 1014.4 |
| 20260504171503 | 76 | 143 | 0.0 | 1.0 | 0.00 | 0.00 | 0.00 | 37 | 1014.5 |
| 20260504171009 | 76 | 174 | 0.0 | 6.0 | 0.00 | 0.00 | 0.00 | 37 | 1014.5 |
| 20260504170602 | 75 | 150 | 0.0 | 6.0 | 0.00 | 0.00 | 0.00 | 37 | 1014.7 |
| 20260504151010 | 69 | 184 | 0.0 | 0.0 | 0.00 | 0.00 | 0.00 | 43 | 1016.2 |
| 20260504150604 | 68 | 179 | 0.0 | 4.0 | 0.00 | 0.00 | 0.00 | 44 | 1016.2 |
| 20260504141008 | 60 | 206 | 0.0 | 1.0 | 0.00 | 0.00 | 0.00 | 65 | 1016.2 |
| 20260504140604 | 59 | 206 | 0.0 | 1.0 | 0.00 | 0.00 | 0.00 | 65 | 1016.2 |
| 20260504130603 | 49 | 181 | 0.0 | 1.0 | 0.00 | 0.00 | 0.00 | 87 | 1016.2 |
| 20260504110605 | 38 | 169 | 0.0 | 0.0 | 0.00 | 0.00 | 0.00 | 93 | 1016.3 |
| 20260504100603 | 39 | 169 | 0.0 | 0.0 | 0.00 | 0.00 | 0.00 | 92 | 1016.2 |
| 20260504081503 | 40 | 169 | 0.0 | 0.0 | 0.00 | 0.00 | 0.00 | 90 | 1016.1 |
| 20260504081010 | 41 | 169 | 0.0 | 0.0 | 0.00 | 0.00 | 0.00 | 90 | 1016.1 |
| 20260504080603 | 41 | 169 | 0.0 | 0.0 | 0.00 | 0.00 | 0.00 | 90 | 1016.0 |